FW8207 Weather Reports


Display with metric or nautical units.
time (UTC)temp
F
wind
direction
speed
MPH
gust
MPH
rain 1hr
in
rain 24hr
in
rain mn
in
humidity
%
barometer
mb
20260505124811 56 117 1.0 2.0 0.00 0.14 0.14 99 1006.6
20260505124308 57 93 2.0 3.0 0.00 0.14 0.14 99 1006.8
20260505123804 57 151 1.0 2.0 0.00 0.14 0.14 99 1006.7
20260505123301 58 107 0.0 1.0 0.00 0.14 0.14 99 1006.8
20260505122757 58 125 0.0 0.0 0.00 0.14 0.14 99 1006.3
20260505122255 58 60 3.0 6.0 0.00 0.14 0.14 99 1006.6
20260505121751 58 98 1.0 1.0 0.00 0.14 0.14 99 1006.6
20260505121248 58 114 2.0 2.0 0.00 0.14 0.14 99 1006.6
20260505120744 58 109 0.0 0.0 0.00 0.14 0.14 99 1006.8
20260505120240 58 25 3.0 5.0 0.00 0.14 0.14 99 1006.4
20260505115739 58 100 2.0 2.0 0.00 0.14 0.14 99 1006.5
20260505115237 58 108 0.0 0.0 0.00 0.14 0.14 99 1006.8
20260505114734 58 181 1.0 1.0 0.00 0.14 0.14 99 1006.6
20260505114230 58 70 2.0 3.0 0.00 0.14 0.14 99 1006.1
20260505113727 58 128 0.0 0.0 0.00 0.14 0.14 99 1005.5
20260505113223 58 119 0.0 1.0 0.00 0.14 0.14 99 1005.9
20260505112720 57 118 0.0 0.0 0.00 0.14 0.14 99 1005.8
20260505112218 57 82 3.0 3.0 0.00 0.14 0.14 99 1006.1
20260505111717 57 113 0.0 0.0 0.00 0.14 0.14 99 1006.7
20260505111214 57 154 0.0 1.0 0.00 0.14 0.14 99 1006.4
20260505110709 57 137 0.0 0.0 0.00 0.14 0.14 99 1006.2
20260505110207 58 136 0.0 0.0 0.00 0.14 0.14 99 1006.2
20260505102142 58 152 1.0 1.0 0.00 0.13 0.13 99 1005.4
20260505101641 58 68 1.0 2.0 0.00 0.13 0.13 99 1005.4
20260505101137 58 130 0.0 1.0 0.00 0.13 0.13 98 1005.3
20260505100633 59 98 1.0 1.0 0.00 0.13 0.13 98 1004.8
20260505100130 59 118 0.0 0.0 0.00 0.13 0.13 97 1004.9
20260505095626 59 145 1.0 1.0 0.00 0.13 0.13 97 1004.6
20260505095124 59 115 3.0 3.0 0.00 0.13 0.13 96 1004.7
20260505094620 59 157 4.0 5.0 0.00 0.13 0.13 96 1004.6
20260505094116 59 125 4.0 6.0 0.00 0.13 0.13 95 1004.3
20260505093613 59 164 4.0 5.0 0.00 0.13 0.13 95 1004.6
20260505093110 59 150 7.0 10.0 0.07 0.13 0.13 96 1004.5
20260505092607 59 145 7.0 8.0 0.07 0.13 0.13 97 1005.2
20260505092106 59 139 2.0 2.0 0.00 0.12 0.12 97 1005.6
20260505091602 59 143 2.0 2.0 0.07 0.12 0.12 97 1005.8
20260505091100 59 144 1.0 1.0 0.12 0.12 0.12 96 1005.9
20260505090558 60 118 0.0 0.0 0.12 0.11 0.11 96 1006.2
20260505090056 60 327 3.0 5.0 0.12 0.10 0.10 96 1006.2
20260505085553 60 191 1.0 1.0 0.19 0.10 0.10 95 1006.4
20260505085051 60 224 3.0 5.0 0.19 0.08 0.08 95 1006.4
20260505084549 60 139 4.0 5.0 0.17 0.07 0.07 94 1006.5
20260505084047 60 190 2.0 2.0 0.12 0.05 0.05 93 1005.9
20260505083544 61 328 4.0 5.0 0.12 0.04 0.04 93 1006.3
20260505083040 61 233 7.0 8.0 0.12 0.03 0.03 92 1005.9
20260505082536 61 264 5.0 7.0 0.07 0.02 0.02 91 1005.9
20260505082033 62 257 5.0 8.0 0.05 0.01 0.01 89 1005.9
20260505081529 62 207 7.0 8.0 0.05 0.01 0.01 87 1006.3
20260505081027 62 203 4.0 7.0 0.00 0.00 0.00 85 1006.2
20260505080523 63 208 2.0 2.0 0.00 0.00 0.00 83 1005.7
20260505080020 63 176 1.0 1.0 0.00 0.00 0.00 81 1005.7
20260505075516 63 127 0.0 1.0 0.00 0.00 0.00 80 1005.8
20260505075013 63 220 2.0 2.0 0.00 0.00 0.00 79 1005.7
20260505074510 63 179 3.0 5.0 0.00 0.00 0.00 79 1005.4
20260505074007 64 203 3.0 3.0 0.00 0.00 0.00 79 1005.5
20260505073504 63 174 3.0 3.0 0.00 0.00 0.00 78 1005.5
20260505073002 64 148 2.0 2.0 0.00 0.00 0.00 79 1005.5
20260505072458 63 194 3.0 3.0 0.00 0.00 0.00 78 1005.4
20260505071954 64 160 1.0 3.0 0.00 0.00 0.00 78 1005.5
20260505071450 64 194 5.0 6.0 0.00 0.00 0.00 78 1005.4
20260505070948 64 161 4.0 5.0 0.00 0.00 0.00 78 1005.4
20260505070444 64 197 5.0 6.0 0.00 0.00 0.00 78 1005.5
20260505065940 64 197 6.0 8.0 0.00 0.00 0.00 78 1005.5
20260505065437 63 134 4.0 5.0 0.00 0.00 0.00 78 1005.5
20260505064933 63 183 4.0 5.0 0.00 0.00 0.00 78 1005.6
20260505064431 64 154 5.0 7.0 0.00 0.00 0.00 78 1005.9
20260505063929 63 176 7.0 8.0 0.00 0.00 0.00 78 1006.1
20260505063425 63 158 3.0 3.0 0.00 0.00 0.00 78 1006.4
20260505062922 63 179 4.0 6.0 0.00 0.00 0.00 78 1006.3
20260505062419 63 181 4.0 6.0 0.00 0.00 0.00 78 1006.4
20260505061915 63 196 2.0 3.0 0.00 0.00 0.00 79 1006.4
20260505061414 63 167 3.0 6.0 0.00 0.00 0.00 78 1006.4
20260505060911 63 189 7.0 9.0 0.00 0.00 0.00 78 1006.4
20260505060408 63 174 5.0 6.0 0.00 0.00 0.00 78 1006.3
20260505055904 63 169 5.0 6.0 0.00 0.00 0.00 78 1006.2
20260505055400 63 160 5.0 7.0 0.00 0.00 0.00 78 1006.2
20260505054857 64 192 3.0 6.0 0.00 0.00 0.00 77 1006.3
20260505054354 63 185 4.0 5.0 0.00 0.00 0.00 77 1006.2
20260505053853 63 192 4.0 6.0 0.00 0.00 0.00 78 1006.4
20260505053350 63 143 5.0 6.0 0.00 0.00 0.00 78 1006.2
20260505052846 64 192 6.0 7.0 0.00 0.00 0.00 77 1006.2
20260505052343 64 170 5.0 5.0 0.00 0.00 0.00 78 1006.5
20260505051840 63 151 4.0 5.0 0.00 0.00 0.00 78 1006.4
20260505051337 63 174 4.0 6.0 0.00 0.00 0.00 78 1006.6
20260505050835 63 177 3.0 5.0 0.00 0.00 0.00 78 1006.5
20260505050334 63 175 4.0 6.0 0.00 0.00 0.00 78 1006.4
20260505041301 64 183 3.0 3.0 0.00 0.00 0.00 77 1007.1
20260505040758 64 145 2.0 2.0 0.00 0.00 0.00 76 1007.3
20260505040255 64 175 3.0 3.0 0.00 0.00 0.00 75 1007.2
20260505035752 64 168 2.0 2.0 0.00 0.00 0.00 76 1007.4
20260505035248 65 177 3.0 3.0 0.00 0.00 0.00 75 1007.3
20260505034745 65 180 2.0 2.0 0.00 0.00 0.00 75 1007.5
20260505034242 65 180 2.0 3.0 0.00 0.00 0.00 75 1007.5
20260505033738 65 177 2.0 3.0 0.00 0.00 0.00 75 1007.3
20260505033236 65 166 3.0 3.0 0.00 0.00 0.00 75 1007.4
20260505032734 65 177 3.0 3.0 0.00 0.00 0.00 74 1007.6
20260505032230 65 164 2.0 2.0 0.00 0.00 0.00 74 1007.5
20260505031727 65 183 2.0 2.0 0.00 0.00 0.00 74 1007.6
20260505031223 65 167 3.0 3.0 0.00 0.00 0.00 74 1007.5
20260505030721 66 193 3.0 3.0 0.00 0.00 0.00 74 1007.7
20260505030217 66 179 4.0 5.0 0.00 0.00 0.00 73 1007.5
20260505025713 66 181 3.0 5.0 0.00 0.00 0.00 72 1007.4
20260505025211 66 155 4.0 5.0 0.00 0.00 0.00 73 1007.4
20260505024709 66 190 4.0 6.0 0.00 0.00 0.00 72 1007.2
20260505024206 66 176 3.0 5.0 0.00 0.00 0.00 72 1007.3
20260505023703 66 198 3.0 5.0 0.00 0.00 0.00 72 1007.1
20260505023200 66 165 2.0 2.0 0.00 0.00 0.00 72 1007.3
20260505022658 66 141 1.0 1.0 0.00 0.00 0.00 71 1007.0
20260505022154 66 147 2.0 2.0 0.00 0.00 0.00 70 1007.1
20260505021651 66 162 2.0 2.0 0.00 0.00 0.00 70 1006.8
20260505021148 67 165 2.0 2.0 0.00 0.00 0.00 70 1006.7
20260505020644 67 166 4.0 5.0 0.00 0.00 0.00 70 1006.8
20260505020140 67 169 3.0 3.0 0.00 0.00 0.00 69 1006.5
20260505015637 68 148 1.0 2.0 0.00 0.00 0.00 68 1006.4
20260505015133 68 157 3.0 3.0 0.00 0.00 0.00 67 1006.5
20260505014630 68 152 2.0 3.0 0.00 0.00 0.00 67 1006.5
20260505014127 68 158 2.0 2.0 0.00 0.00 0.00 67 1006.3
20260505013625 69 148 1.0 2.0 0.00 0.00 0.00 66 1006.2
20260505013122 69 135 2.0 2.0 0.00 0.00 0.00 66 1006.1
20260505012620 69 193 2.0 2.0 0.00 0.00 0.00 65 1006.1
20260505012117 69 162 2.0 2.0 0.00 0.00 0.00 65 1006.1
20260505011612 70 167 1.0 2.0 0.00 0.00 0.00 65 1005.9
20260505011110 70 155 1.0 1.0 0.00 0.00 0.00 64 1005.8
20260505010605 70 172 5.0 6.0 0.00 0.00 0.00 63 1005.8
20260505005558 70 204 3.0 5.0 0.00 0.00 0.00 64 1005.6
20260505005055 70 164 2.0 2.0 0.00 0.00 0.00 63 1005.7
20260505004552 71 220 3.0 5.0 0.00 0.00 0.00 62 1005.7
20260505004049 71 207 3.0 3.0 0.00 0.00 0.00 61 1005.5
20260505003546 72 149 1.0 2.0 0.00 0.00 0.00 61 1005.6
20260505003043 72 183 3.0 3.0 0.00 0.00 0.00 59 1005.6
20260505002538 73 212 4.0 5.0 0.00 0.00 0.00 58 1005.5
20260505002037 73 149 4.0 5.0 0.00 0.00 0.00 57 1005.5
20260505001534 74 198 5.0 7.0 0.00 0.00 0.00 56 1005.5
20260505001031 74 209 5.0 7.0 0.00 0.00 0.00 56 1005.7
20260505000529 74 207 4.0 6.0 0.00 0.00 0.00 56 1005.5
20260505000026 74 186 4.0 6.0 0.00 0.00 0.00 55 1005.3
20260504235523 75 160 5.0 7.0 0.00 0.00 0.00 55 1005.6
20260504235019 75 177 8.0 10.0 0.00 0.00 0.00 54 1005.3
20260504234516 75 120 6.0 7.0 0.00 0.00 0.00 54 1005.3
20260504234013 75 209 8.0 10.0 0.00 0.00 0.00 53 1005.5
20260504233508 76 193 6.0 7.0 0.00 0.00 0.00 54 1005.4
20260504233006 76 181 9.0 10.0 0.00 0.00 0.00 53 1005.6
20260504232503 76 211 11.0 14.0 0.00 0.00 0.00 52 1005.4
20260504232001 77 156 10.0 14.0 0.00 0.00 0.00 52 1005.5
20260504231456 77 199 8.0 9.0 0.00 0.00 0.00 52 1005.4
20260504230953 77 223 7.0 8.0 0.00 0.00 0.00 49 1005.5
20260504230449 77 180 11.0 14.0 0.00 0.00 0.00 49 1005.5
20260504225949 77 147 8.0 10.0 0.00 0.00 0.00 50 1005.5
20260504225445 77 226 13.0 16.0 0.00 0.00 0.00 49 1005.6
20260504224942 78 222 5.0 7.0 0.00 0.00 0.00 50 1005.8
20260504224438 78 191 6.0 8.0 0.00 0.00 0.00 50 1005.6
20260504223936 78 209 5.0 10.0 0.00 0.00 0.00 50 1005.6
20260504223431 78 193 4.0 6.0 0.00 0.00 0.00 51 1005.5
20260504222927 78 218 12.0 16.0 0.00 0.00 0.00 49 1005.6
20260504222425 78 209 12.0 16.0 0.00 0.00 0.00 49 1005.8
20260504221923 78 231 4.0 6.0 0.00 0.00 0.00 50 1005.5
20260504221419 78 189 4.0 5.0 0.00 0.00 0.00 50 1005.8
20260504220916 78 237 7.0 10.0 0.00 0.00 0.00 51 1005.8
20260504220413 78 197 4.0 5.0 0.00 0.00 0.00 53 1005.8
20260504215910 78 205 6.0 7.0 0.00 0.00 0.00 51 1005.8
20260504215407 78 187 9.0 13.0 0.00 0.00 0.00 50 1005.8
20260504214903 78 200 9.0 14.0 0.00 0.00 0.00 51 1005.6
20260504214400 77 209 9.0 11.0 0.00 0.00 0.00 50 1005.9
20260504213857 78 236 4.0 6.0 0.00 0.00 0.00 54 1006.1
20260504213352 78 214 11.0 16.0 0.00 0.00 0.00 49 1005.8
20260504212850 78 198 7.0 8.0 0.00 0.00 0.00 52 1005.9
20260504212346 77 249 14.0 18.0 0.00 0.00 0.00 49 1005.9
20260504211844 78 208 15.0 18.0 0.00 0.00 0.00 50 1006.1
20260504211339 78 201 13.0 16.0 0.00 0.00 0.00 50 1006.4
20260504210837 79 239 9.0 10.0 0.00 0.00 0.00 51 1006.2
20260504210334 79 225 10.0 15.0 0.00 0.00 0.00 50 1005.9
20260504205831 79 179 6.0 8.0 0.00 0.00 0.00 51 1006.2
20260504205329 78 226 10.0 15.0 0.00 0.00 0.00 50 1006.3
20260504204827 78 212 9.0 11.0 0.00 0.00 0.00 48 1006.4
20260504204325 78 215 7.0 8.0 0.00 0.00 0.00 50 1006.3
20260504203824 78 204 6.0 8.0 0.00 0.00 0.00 50 1006.6
20260504203321 78 255 7.0 9.0 0.00 0.00 0.00 50 1006.6
20260504202816 78 193 5.0 7.0 0.00 0.00 0.00 52 1006.7
20260504202314 78 224 5.0 7.0 0.00 0.00 0.00 50 1006.9
20260504201810 78 208 6.0 7.0 0.00 0.00 0.00 51 1007.0
20260504201308 78 209 9.0 11.0 0.00 0.00 0.00 53 1006.7
20260504200805 78 273 8.0 10.0 0.00 0.00 0.00 53 1006.9
20260504200301 78 206 12.0 15.0 0.00 0.00 0.00 51 1007.0
20260504195758 78 203 10.0 14.0 0.00 0.00 0.00 49 1007.1
20260504195253 78 222 6.0 8.0 0.00 0.00 0.00 52 1007.0
20260504194751 77 231 10.0 17.0 0.00 0.00 0.00 53 1007.1
20260504194247 77 196 9.0 10.0 0.00 0.00 0.00 52 1007.1
20260504193743 77 187 13.0 16.0 0.00 0.00 0.00 51 1007.6
20260504193241 77 213 11.0 14.0 0.00 0.00 0.00 53 1007.3
20260504192739 78 206 11.0 14.0 0.00 0.00 0.00 53 1007.2
20260504192237 78 169 5.0 9.0 0.00 0.00 0.00 55 1007.3
20260504191735 78 202 6.0 8.0 0.00 0.00 0.00 56 1007.5
20260504191232 77 196 9.0 11.0 0.00 0.00 0.00 53 1007.3
20260504190727 78 240 9.0 11.0 0.00 0.00 0.00 53 1007.2
20260504190224 77 191 13.0 16.0 0.00 0.00 0.00 51 1007.2
20260504185720 77 167 13.0 17.0 0.00 0.00 0.00 52 1007.3
20260504185217 77 206 8.0 10.0 0.00 0.00 0.00 54 1007.2
20260504184713 77 156 5.0 7.0 0.00 0.00 0.00 55 1007.2
20260504184209 77 186 10.0 11.0 0.00 0.00 0.00 53 1007.3
20260504183705 77 189 10.0 11.0 0.00 0.00 0.00 52 1007.3
20260504183202 77 207 9.0 13.0 0.00 0.00 0.00 53 1007.6
20260504182700 77 211 6.0 8.0 0.00 0.00 0.00 55 1007.2
20260504182157 77 189 10.0 10.0 0.00 0.00 0.00 53 1007.4
20260504181655 77 201 7.0 8.0 0.00 0.00 0.00 55 1007.3
20260504181152 77 195 12.0 15.0 0.00 0.00 0.00 52 1007.7
20260504180651 77 184 8.0 13.0 0.00 0.00 0.00 52 1007.6
20260504180150 77 244 10.0 13.0 0.00 0.00 0.00 53 1007.6
20260504175646 76 227 9.0 11.0 0.00 0.00 0.00 53 1007.7
20260504175143 76 187 3.0 5.0 0.00 0.00 0.00 53 1007.6
20260504174641 76 216 8.0 9.0 0.00 0.00 0.00 52 1007.7
20260504174137 76 243 10.0 14.0 0.00 0.00 0.00 54 1007.9
20260504173635 76 201 6.0 10.0 0.00 0.00 0.00 52 1007.9
20260504173132 76 217 4.0 6.0 0.00 0.00 0.00 55 1007.6
20260504172629 76 202 5.0 7.0 0.00 0.00 0.00 54 1007.7
20260504172125 76 208 6.0 7.0 0.00 0.00 0.00 54 1007.8
20260504171621 76 198 9.0 11.0 0.00 0.00 0.00 54 1007.9
20260504171119 75 223 12.0 16.0 0.00 0.00 0.00 54 1007.9
20260504170615 75 200 7.0 9.0 0.00 0.00 0.00 57 1007.7
20260504170113 75 210 6.0 8.0 0.00 0.00 0.00 57 1007.7
20260504150958 71 226 6.0 8.0 0.00 0.00 0.00 57 1009.2
20260504150455 70 284 4.0 6.0 0.00 0.00 0.00 59 1009.2
20260504140922 66 124 5.0 8.0 0.00 0.00 0.00 62 1009.6
20260504140418 66 202 11.0 13.0 0.00 0.00 0.00 63 1009.6
20260504130343 63 226 7.0 9.0 0.00 0.00 0.00 67 1010.0